GW6014 Weather Reports


time (UTC)temp
C
wind
direction
speed
KPH
gust
KPH
rain 1hr
cm
rain 24hr
cm
rain mn
cm
humidity
%
barometer
mb
20260906022604 27 11 1.6 1.6 0.00 0.00 0.00 75 1014.3
20260906022100 27 39 1.6 1.6 0.00 0.00 0.00 73 1014.1
20260906021555 27 21 0.0 0.0 0.00 0.00 0.00 73 1014.0
20260906021054 27 35 0.0 0.0 0.00 0.00 0.00 73 1014.2
20260906020549 27 28 0.0 0.0 0.00 0.00 0.00 73 1013.9
20260906020048 27 42 0.0 0.0 0.00 0.00 0.00 72 1013.9
20260906015547 28 32 0.0 0.0 0.00 0.00 0.00 70 1013.9
20260906015042 28 30 0.0 0.0 0.00 0.00 0.00 69 1013.8
20260906014542 28 32 0.0 0.0 0.00 0.00 0.00 69 1013.8
20260906014038 28 29 0.0 1.6 0.00 0.00 0.00 69 1013.6
20260906013533 28 31 0.0 0.0 0.00 0.00 0.00 67 1013.7
20260906013028 28 25 0.0 1.6 0.00 0.00 0.00 66 1013.5
20260906012523 29 35 0.0 0.0 0.00 0.00 0.00 65 1013.5
20260906012023 29 23 1.6 1.6 0.00 0.00 0.00 64 1013.5
20260906011519 29 40 0.0 1.6 0.00 0.00 0.00 64 1013.3
20260906011019 29 39 1.6 3.2 0.00 0.00 0.00 63 1013.4
20260906010515 29 49 1.6 3.2 0.00 0.00 0.00 63 1013.3
20260906010011 28 34 0.0 1.6 0.00 0.00 0.00 64 1013.4
20260906005510 28 28 1.6 1.6 0.00 0.00 0.00 65 1013.2
20260906005009 29 34 0.0 1.6 0.00 0.00 0.00 64 1013.2
20260906004508 29 34 0.0 0.0 0.00 0.00 0.00 63 1013.0
20260906004003 30 34 0.0 0.0 0.00 0.00 0.00 61 1013.0
20260906003459 30 35 0.0 0.0 0.00 0.00 0.00 61 1013.0
20260906002954 30 34 0.0 1.6 0.00 0.00 0.00 59 1013.1
20260906002454 30 25 0.0 0.0 0.00 0.00 0.00 58 1013.1
20260906001949 31 29 0.0 0.0 0.00 0.00 0.00 57 1013.3
20260906001445 31 42 0.0 0.0 0.00 0.00 0.00 56 1013.2
20260906000940 31 28 0.0 0.0 0.00 0.00 0.00 57 1013.4
20260906000436 31 21 0.0 0.0 0.00 0.00 0.00 55 1013.3
20260905235930 31 26 1.6 1.6 0.00 0.00 0.00 54 1013.1
20260905235430 31 26 1.6 1.6 0.00 0.00 0.00 53 1013.3
20260905234925 31 51 0.0 0.0 0.00 0.00 0.00 52 1013.4
20260905234421 32 43 1.6 1.6 0.00 0.00 0.00 51 1013.3
20260905233920 32 49 1.6 1.6 0.00 0.00 0.00 51 1013.4
20260905233416 32 34 0.0 1.6 0.00 0.00 0.00 51 1013.3
20260905232915 32 38 1.6 1.6 0.00 0.00 0.00 49 1013.3
20260905232411 32 27 0.0 1.6 0.00 0.00 0.00 50 1013.3
20260905231906 32 55 0.0 3.2 0.00 0.00 0.00 50 1013.1
20260905231402 32 51 1.6 4.8 0.00 0.00 0.00 49 1013.3
20260905230859 32 18 3.2 9.7 0.00 0.00 0.00 49 1013.3
20260905230356 33 98 3.2 6.4 0.00 0.00 0.00 50 1013.5
20260905225850 33 32 3.2 11.3 0.00 0.00 0.00 50 1013.6
20260905225344 33 31 8.0 14.5 0.00 0.00 0.00 49 1013.5
20260905224839 34 42 8.0 14.5 0.00 0.00 0.00 49 1013.4
20260905224335 35 43 8.0 16.1 0.00 0.00 0.00 49 1013.4
20260905223830 35 24 1.6 11.3 0.00 0.00 0.00 48 1013.1
20260905223328 36 14 9.7 16.1 0.00 0.00 0.00 45 1013.1
20260905222823 36 50 3.2 6.4 0.00 0.00 0.00 44 1013.2
20260905222321 36 38 3.2 9.7 0.00 0.00 0.00 43 1013.2
20260905221817 36 28 3.2 6.4 0.00 0.00 0.00 42 1013.2
20260905221314 36 44 4.8 9.7 0.00 0.00 0.00 42 1013.1
20260905220809 37 16 4.8 11.3 0.00 0.00 0.00 41 1013.1
20260905220306 37 8 4.8 9.7 0.00 0.00 0.00 41 1013.1
20260905215804 36 31 1.6 4.8 0.00 0.00 0.00 43 1013.0
20260905215300 36 7 6.4 9.7 0.00 0.00 0.00 42 1013.0
20260905214756 36 55 1.6 6.4 0.00 0.00 0.00 43 1012.8
20260905214252 36 73 6.4 9.7 0.00 0.00 0.00 43 1012.9
20260905213747 36 72 6.4 12.9 0.00 0.00 0.00 43 1012.9
20260905213243 36 357 8.0 12.9 0.00 0.00 0.00 43 1012.7
20260905212738 36 51 8.0 14.5 0.00 0.00 0.00 43 1013.0
20260905212237 37 58 6.4 14.5 0.00 0.00 0.00 43 1013.0
20260905211737 37 33 6.4 14.5 0.00 0.00 0.00 43 1013.1
20260905211232 37 20 4.8 9.7 0.00 0.00 0.00 43 1013.0
20260905210729 38 30 6.4 12.9 0.00 0.00 0.00 41 1013.2
20260905210228 38 282 4.8 6.4 0.00 0.00 0.00 40 1012.9
20260905205727 37 337 3.2 4.8 0.00 0.00 0.00 41 1013.1
20260905205222 37 25 4.8 6.4 0.00 0.00 0.00 41 1013.4
20260905204722 37 51 1.6 3.2 0.00 0.00 0.00 42 1013.0
20260905204218 37 25 3.2 6.4 0.00 0.00 0.00 41 1013.4
20260905203711 37 14 1.6 6.4 0.00 0.00 0.00 40 1013.3
20260905203207 38 49 8.0 12.9 0.00 0.00 0.00 38 1013.1
20260905202703 38 22 6.4 11.3 0.00 0.00 0.00 38 1013.0
20260905202157 38 64 1.6 9.7 0.00 0.00 0.00 38 1013.4
20260905201653 38 9 6.4 9.7 0.00 0.00 0.00 38 1013.4
20260905201153 38 298 1.6 6.4 0.00 0.00 0.00 39 1013.3
20260905200648 38 276 3.2 11.3 0.00 0.00 0.00 40 1013.4
20260905200144 38 74 1.6 9.7 0.00 0.00 0.00 39 1013.6
20260905195642 38 240 4.8 9.7 0.00 0.00 0.00 38 1013.8
20260905195137 38 322 3.2 12.9 0.00 0.00 0.00 40 1013.6
20260905194632 38 216 3.2 9.7 0.00 0.00 0.00 39 1013.8
20260905194131 38 352 3.2 11.3 0.00 0.00 0.00 41 1013.7
20260905193627 38 14 3.2 6.4 0.00 0.00 0.00 39 1013.6
20260905193127 38 336 6.4 12.9 0.00 0.00 0.00 39 1013.8
20260905192622 38 23 3.2 6.4 0.00 0.00 0.00 39 1014.0
20260905192119 38 47 3.2 9.7 0.00 0.00 0.00 38 1014.1
20260905191618 38 225 1.6 11.3 0.00 0.00 0.00 38 1014.3
20260905191116 38 218 4.8 9.7 0.00 0.00 0.00 38 1014.3
20260905190615 38 258 4.8 12.9 0.00 0.00 0.00 40 1014.3
20260905190114 38 10 4.8 9.7 0.00 0.00 0.00 37 1014.2
20260905185613 38 293 6.4 6.4 0.00 0.00 0.00 41 1014.5
20260905185108 38 202 8.0 11.3 0.00 0.00 0.00 40 1014.2
20260905184602 38 317 1.6 6.4 0.00 0.00 0.00 42 1014.5
20260905184101 37 21 3.2 12.9 0.00 0.00 0.00 43 1014.5
20260905183601 37 44 1.6 6.4 0.00 0.00 0.00 44 1014.5
20260905183057 37 10 3.2 9.7 0.00 0.00 0.00 43 1014.6
20260905182556 37 356 6.4 11.3 0.00 0.00 0.00 43 1014.8
20260905182051 37 266 9.7 12.9 0.00 0.00 0.00 43 1014.9
20260905181550 37 213 4.8 9.7 0.00 0.00 0.00 44 1015.0
20260905181044 37 326 4.8 4.8 0.00 0.00 0.00 44 1015.0
20260905180544 37 327 0.0 4.8 0.00 0.00 0.00 46 1014.9
20260905180040 37 248 4.8 9.7 0.00 0.00 0.00 46 1014.9
20260905175539 37 325 0.0 6.4 0.00 0.00 0.00 49 1015.0
20260905175035 37 219 3.2 6.4 0.00 0.00 0.00 47 1014.9
20260905174530 37 26 3.2 6.4 0.00 0.00 0.00 47 1015.0
20260905174026 37 281 3.2 6.4 0.00 0.00 0.00 48 1014.9
20260905173522 36 347 0.0 4.8 0.00 0.00 0.00 48 1015.0
20260905173017 36 51 4.8 6.4 0.00 0.00 0.00 47 1015.1
20260905172515 36 314 4.8 6.4 0.00 0.00 0.00 48 1014.9
20260905172011 36 17 3.2 4.8 0.00 0.00 0.00 48 1015.2
20260905171508 36 19 4.8 6.4 0.00 0.00 0.00 48 1015.3
20260905171004 36 294 3.2 6.4 0.00 0.00 0.00 48 1015.2
20260905170500 36 357 1.6 1.6 0.00 0.00 0.00 49 1015.3
20260905170000 35 337 0.0 3.2 0.00 0.00 0.00 50 1015.3
20260905165455 35 40 3.2 6.4 0.00 0.00 0.00 51 1015.5
20260905164950 35 27 1.6 4.8 0.00 0.00 0.00 50 1015.5
20260905164449 35 294 3.2 4.8 0.00 0.00 0.00 53 1015.5
20260905163944 35 37 3.2 9.7 0.00 0.00 0.00 53 1015.8
20260905163441 35 64 6.4 9.7 0.00 0.00 0.00 51 1015.7
20260905162937 34 214 3.2 4.8 0.00 0.00 0.00 53 1015.8
20260905162432 35 319 1.6 4.8 0.00 0.00 0.00 53 1015.6
20260905161927 34 271 6.4 6.4 0.00 0.00 0.00 54 1015.8
20260905161426 34 36 3.2 4.8 0.00 0.00 0.00 55 1015.8
20260905160924 33 306 1.6 3.2 0.00 0.00 0.00 54 1015.9
20260905160419 33 45 3.2 6.4 0.00 0.00 0.00 55 1015.9
20260905155918 33 249 4.8 9.7 0.00 0.00 0.00 55 1016.1
20260905155418 33 308 1.6 3.2 0.00 0.00 0.00 55 1016.0
20260905154917 33 47 4.8 6.4 0.00 0.00 0.00 56 1016.0
20260905154413 33 271 3.2 6.4 0.00 0.00 0.00 57 1016.0
20260905153908 33 237 1.6 6.4 0.00 0.00 0.00 57 1016.1
20260905153404 33 225 3.2 4.8 0.00 0.00 0.00 58 1015.8
20260905152904 33 247 3.2 4.8 0.00 0.00 0.00 58 1016.0
20260905152403 33 268 1.6 4.8 0.00 0.00 0.00 58 1016.0
20260905151858 33 300 3.2 3.2 0.00 0.00 0.00 59 1015.8
20260905151355 33 281 3.2 4.8 0.00 0.00 0.00 58 1015.9
20260905150855 33 303 1.6 11.3 0.00 0.00 0.00 58 1015.9
20260905150354 32 64 0.0 3.2 0.00 0.00 0.00 61 1016.0
20260905145851 32 345 3.2 6.4 0.00 0.00 0.00 61 1015.9
20260905145346 32 236 3.2 4.8 0.00 0.00 0.00 63 1015.9
20260905144845 31 60 0.0 3.2 0.00 0.00 0.00 63 1015.9
20260905144341 31 215 1.6 3.2 0.00 0.00 0.00 64 1016.0
20260905143839 31 282 3.2 4.8 0.00 0.00 0.00 65 1015.8
20260905143334 31 286 3.2 4.8 0.00 0.00 0.00 65 1015.8
20260905142833 30 19 0.0 1.6 0.00 0.00 0.00 66 1016.0
20260905142327 30 317 0.0 1.6 0.00 0.00 0.00 68 1016.1
20260905141823 30 223 1.6 3.2 0.00 0.00 0.00 69 1016.0
20260905141324 29 324 0.0 3.2 0.00 0.00 0.00 70 1016.0
20260905140819 29 279 1.6 3.2 0.00 0.00 0.00 69 1016.0
20260905140319 29 242 1.6 3.2 0.00 0.00 0.00 70 1015.9
20260905135818 29 75 0.0 3.2 0.00 0.00 0.00 69 1015.9
20260905135314 29 23 1.6 3.2 0.00 0.00 0.00 70 1015.9
20260905134810 29 208 6.4 6.4 0.00 0.00 0.00 69 1016.1
20260905134308 29 260 1.6 1.6 0.00 0.00 0.00 70 1015.9
20260905133808 29 279 1.6 3.2 0.00 0.00 0.00 70 1015.9
20260905133304 29 192 1.6 3.2 0.00 0.00 0.00 70 1016.1
20260905132802 29 357 0.0 1.6 0.00 0.00 0.00 71 1016.0
20260905132258 28 307 0.0 1.6 0.00 0.00 0.00 74 1015.9
20260905131753 28 339 0.0 1.6 0.00 0.00 0.00 74 1015.8
20260905131248 28 217 1.6 1.6 0.00 0.00 0.00 75 1015.7
20260905130743 27 172 0.0 1.6 0.00 0.00 0.00 78 1015.9
20260905130242 27 65 0.0 0.0 0.00 0.00 0.00 78 1015.8
20260905125738 27 102 1.6 1.6 0.00 0.00 0.00 79 1015.8
20260905125233 26 64 0.0 1.6 0.00 0.00 0.00 82 1015.8
20260905124730 25 63 0.0 1.6 0.00 0.00 0.00 86 1015.8
20260905124225 25 56 0.0 0.0 0.00 0.00 0.00 88 1015.7
20260905123720 24 68 0.0 1.6 0.00 0.00 0.00 88 1015.7
20260905123217 24 67 0.0 1.6 0.00 0.00 0.00 89 1015.5
20260905122716 23 50 0.0 1.6 0.00 0.00 0.00 90 1015.6
20260905122211 23 55 0.0 1.6 0.00 0.00 0.00 91 1015.5
20260905121706 23 55 0.0 0.0 0.00 0.00 0.00 91 1015.5
20260905121202 23 53 0.0 0.0 0.00 0.00 0.00 91 1015.4
20260905120701 23 58 0.0 0.0 0.00 0.00 0.00 91 1015.3
20260905120155 23 57 0.0 0.0 0.00 0.00 0.00 91 1015.4
20260905115655 22 71 0.0 0.0 0.00 0.00 0.00 91 1015.4
20260905115150 22 59 0.0 0.0 0.00 0.00 0.00 91 1015.3
20260905114650 22 53 0.0 0.0 0.00 0.00 0.00 91 1015.2
20260905114148 22 88 0.0 1.6 0.00 0.00 0.00 92 1015.0
20260905113643 22 74 0.0 1.6 0.00 0.00 0.00 92 1015.0
20260905113139 22 54 0.0 0.0 0.00 0.00 0.00 91 1014.9
20260905112633 22 57 0.0 0.0 0.00 0.00 0.00 91 1015.1
20260905112129 22 57 0.0 0.0 0.00 0.00 0.00 90 1015.1
20260905111623 23 22 0.0 0.0 0.00 0.00 0.00 90 1015.0
20260905111122 23 49 0.0 0.0 0.00 0.00 0.00 90 1014.9
20260905110622 23 60 0.0 0.0 0.00 0.00 0.00 90 1015.0
20260905110117 23 33 0.0 0.0 0.00 0.00 0.00 90 1014.9
20260905105612 23 69 1.6 1.6 0.00 0.00 0.00 90 1015.0
20260905105111 23 45 0.0 0.0 0.00 0.00 0.00 89 1014.8
20260905104607 23 46 0.0 0.0 0.00 0.00 0.00 89 1015.0
20260905104106 23 53 0.0 0.0 0.00 0.00 0.00 89 1015.0
20260905103556 23 51 0.0 0.0 0.00 0.00 0.00 89 1014.9
20260905103052 23 45 0.0 0.0 0.00 0.00 0.00 89 1014.9
20260905102547 23 50 0.0 0.0 0.00 0.00 0.00 89 1014.9
20260905102044 23 47 0.0 0.0 0.00 0.00 0.00 88 1015.1
20260905101542 23 49 0.0 0.0 0.00 0.00 0.00 88 1015.2
20260905101041 23 46 0.0 0.0 0.00 0.00 0.00 88 1014.9
20260905100537 23 51 0.0 0.0 0.00 0.00 0.00 88 1014.9
20260905100037 23 56 0.0 1.6 0.00 0.00 0.00 88 1015.2
20260905095531 23 40 0.0 1.6 0.00 0.00 0.00 88 1015.2
20260905095027 23 57 0.0 0.0 0.00 0.00 0.00 88 1015.0
20260905094522 23 46 0.0 0.0 0.00 0.00 0.00 88 1014.8
20260905094021 23 49 0.0 1.6 0.00 0.00 0.00 88 1015.0
20260905093515 23 48 0.0 0.0 0.00 0.00 0.00 87 1014.9
20260905093012 23 46 0.0 0.0 0.00 0.00 0.00 87 1014.8
20260905092512 23 51 0.0 0.0 0.00 0.00 0.00 88 1014.7
20260905092008 23 57 0.0 0.0 0.00 0.00 0.00 88 1014.8
20260905091502 23 69 0.0 0.0 0.00 0.00 0.00 88 1014.9
20260905091002 23 34 0.0 0.0 0.00 0.00 0.00 87 1014.9
20260905090456 24 58 0.0 0.0 0.00 0.00 0.00 87 1014.9
20260905085955 24 87 0.0 1.6 0.00 0.00 0.00 87 1015.0
20260905085455 24 82 0.0 1.6 0.00 0.00 0.00 87 1014.7
20260905084952 24 47 0.0 0.0 0.00 0.00 0.00 87 1014.9
20260905084451 24 43 0.0 0.0 0.00 0.00 0.00 87 1014.9
20260905083951 24 53 0.0 0.0 0.00 0.00 0.00 88 1014.8
20260905083447 24 44 0.0 0.0 0.00 0.00 0.00 87 1014.9
20260905082942 24 44 0.0 0.0 0.00 0.00 0.00 88 1014.9
20260905082438 23 45 0.0 0.0 0.00 0.00 0.00 88 1015.0
20260905081933 23 47 0.0 0.0 0.00 0.00 0.00 88 1015.0
20260905081428 23 51 0.0 0.0 0.00 0.00 0.00 88 1015.1
20260905080927 23 66 0.0 0.0 0.00 0.00 0.00 88 1015.0
20260905080422 24 43 0.0 0.0 0.00 0.00 0.00 88 1015.1
20260905075921 24 42 0.0 0.0 0.00 0.00 0.00 88 1015.1
20260905075421 24 46 0.0 0.0 0.00 0.00 0.00 88 1015.2
20260905074919 24 46 0.0 0.0 0.00 0.00 0.00 87 1015.1
20260905074415 24 46 0.0 0.0 0.00 0.00 0.00 87 1015.2
20260905073911 24 46 0.0 0.0 0.00 0.00 0.00 86 1015.1
20260905073406 24 48 0.0 0.0 0.00 0.00 0.00 86 1015.2
20260905072902 24 44 0.0 0.0 0.00 0.00 0.00 86 1015.4
20260905072356 24 45 0.0 0.0 0.00 0.00 0.00 86 1015.4
20260905071852 24 45 0.0 0.0 0.00 0.00 0.00 86 1015.3
20260905071349 24 82 1.6 1.6 0.00 0.00 0.00 86 1015.4
20260905070848 24 52 0.0 0.0 0.00 0.00 0.00 86 1015.4
20260905070345 24 46 0.0 0.0 0.00 0.00 0.00 87 1015.4
20260905065844 24 48 0.0 0.0 0.00 0.00 0.00 86 1015.5
20260905065342 24 48 0.0 0.0 0.00 0.00 0.00 86 1015.4
20260905064838 24 48 0.0 0.0 0.00 0.00 0.00 86 1015.2
20260905064333 25 52 0.0 0.0 0.00 0.00 0.00 85 1015.4
20260905063832 25 52 0.0 0.0 0.00 0.00 0.00 86 1015.2
20260905063328 25 38 0.0 0.0 0.00 0.00 0.00 85 1015.3
20260905062824 25 33 0.0 0.0 0.00 0.00 0.00 86 1015.5
20260905062319 25 17 0.0 0.0 0.00 0.00 0.00 86 1015.5
20260905061814 25 23 0.0 0.0 0.00 0.00 0.00 86 1015.5
20260905061313 25 46 0.0 0.0 0.00 0.00 0.00 85 1015.4
20260905060808 25 45 0.0 0.0 0.00 0.00 0.00 84 1015.5
20260905060304 25 45 0.0 0.0 0.00 0.00 0.00 84 1015.5
20260905055803 25 46 0.0 0.0 0.00 0.00 0.00 83 1015.5
20260905055258 25 45 0.0 0.0 0.00 0.00 0.00 83 1015.6
20260905054753 25 45 0.0 0.0 0.00 0.00 0.00 83 1015.4
20260905054250 25 52 0.0 0.0 0.00 0.00 0.00 81 1015.3
20260905053748 26 51 0.0 0.0 0.00 0.00 0.00 81 1015.3
20260905053244 26 52 0.0 0.0 0.00 0.00 0.00 81 1015.5
20260905052743 26 55 0.0 0.0 0.00 0.00 0.00 80 1015.3
20260905052238 26 54 0.0 0.0 0.00 0.00 0.00 79 1015.6
20260905051738 26 50 0.0 0.0 0.00 0.00 0.00 79 1015.4
20260905051235 26 64 0.0 0.0 0.00 0.00 0.00 79 1015.6
20260905050731 26 53 0.0 1.6 0.00 0.00 0.00 78 1015.4
20260905050227 26 52 0.0 0.0 0.00 0.00 0.00 78 1015.6
20260905045727 26 52 0.0 0.0 0.00 0.00 0.00 78 1015.4
20260905045223 27 40 0.0 0.0 0.00 0.00 0.00 77 1015.4
20260905044717 27 47 0.0 1.6 0.00 0.00 0.00 76 1015.4
20260905044213 27 35 0.0 0.0 0.00 0.00 0.00 76 1015.5
20260905043712 27 43 0.0 0.0 0.00 0.00 0.00 74 1015.3
20260905043207 27 33 0.0 0.0 0.00 0.00 0.00 73 1015.3
20260905042707 28 44 0.0 0.0 0.00 0.00 0.00 72 1015.1
20260905042206 27 226 3.2 3.2 0.00 0.00 0.00 73 1015.3
20260905041702 27 182 3.2 3.2 0.00 0.00 0.00 74 1015.1
20260905041157 27 98 0.0 1.6 0.00 0.00 0.00 72 1015.2
20260905040652 28 100 1.6 3.2 0.00 0.00 0.00 71 1015.4
20260905040151 28 240 1.6 3.2 0.00 0.00 0.00 71 1015.1
20260905035645 27 181 1.6 3.2 0.00 0.00 0.00 72 1015.2
20260905035142 27 131 0.0 1.6 0.00 0.00 0.00 73 1015.2
20260905034638 27 193 0.0 4.8 0.00 0.00 0.00 75 1015.0
20260905034137 27 29 0.0 0.0 0.00 0.00 0.00 76 1015.3
20260905033636 27 97 0.0 1.6 0.00 0.00 0.00 76 1015.4
20260905033132 26 87 1.6 1.6 0.00 0.00 0.00 77 1015.2
20260905032632 26 98 1.6 1.6 0.00 0.00 0.00 77 1015.3
20260905032132 26 46 0.0 1.6 0.00 0.00 0.00 77 1015.5
20260905031628 27 57 0.0 0.0 0.00 0.00 0.00 77 1015.3
20260905031124 27 57 0.0 1.6 0.00 0.00 0.00 76 1015.6
20260905030624 26 53 0.0 0.0 0.00 0.00 0.00 77 1015.5
20260905030119 27 21 0.0 1.6 0.00 0.00 0.00 77 1015.4
20260905025614 27 320 0.0 1.6 0.00 0.00 0.00 76 1015.6
20260905025109 27 36 0.0 0.0 0.00 0.00 0.00 75 1015.5
20260905024605 27 40 0.0 0.0 0.00 0.00 0.00 74 1015.2
20260905024100 27 45 0.0 0.0 0.00 0.00 0.00 74 1015.4
20260905023555 27 33 0.0 0.0 0.00 0.00 0.00 75 1015.5
20260905023050 27 46 0.0 0.0 0.00 0.00 0.00 74 1015.4